TimeMST,TemperatureF,Dew PointF,Humidity,Sea Level PressureIn,VisibilityMPH,Wind Direction,Wind SpeedMPH,Gust SpeedMPH,PrecipitationIn,Events,Conditions,WindDirDegrees,DateUTC
12:56 AM,46.0,16.0,30,29.97,10.0,Calm,Calm,-,N/A,,Clear,0,2012-10-08 07:56:00
1:56 AM,46.9,21.0,36,29.96,10.0,Calm,Calm,-,N/A,,Clear,0,2012-10-08 08:56:00
2:56 AM,46.0,21.9,39,29.96,10.0,East,5.8,-,N/A,,Clear,100,2012-10-08 09:56:00
3:56 AM,45.0,10.0,24,29.96,10.0,SE,3.5,-,N/A,,Clear,130,2012-10-08 10:56:00
4:56 AM,45.0,10.9,25,29.97,10.0,ESE,4.6,-,N/A,,Clear,120,2012-10-08 11:56:00
5:56 AM,43.0,10.9,27,30.00,10.0,ESE,8.1,-,N/A,,Clear,110,2012-10-08 12:56:00
6:56 AM,44.1,12.0,27,30.03,10.0,ESE,6.9,-,N/A,,Clear,110,2012-10-08 13:56:00
7:56 AM,48.9,12.9,24,30.06,10.0,East,5.8,-,N/A,,Clear,100,2012-10-08 14:56:00
8:56 AM,57.0,21.0,25,30.04,10.0,ESE,6.9,-,N/A,,Clear,120,2012-10-08 15:56:00
9:56 AM,64.9,28.9,26,30.00,10.0,East,5.8,-,N/A,,Clear,100,2012-10-08 16:56:00
10:56 AM,72.0,33.1,24,29.96,10.0,East,3.5,-,N/A,,Clear,100,2012-10-08 17:56:00
11:56 AM,78.1,32.0,19,29.92,10.0,NNE,5.8,-,N/A,,Clear,30,2012-10-08 18:56:00
12:56 PM,80.6,30.2,16,30.05,10.0,WSW,12.7,20.7,N/A,,Clear,240,2012-10-08 19:56:00
1:56 PM,81.0,28.0,14,29.87,10.0,SW,12.7,23.0,N/A,,Clear,230,2012-10-08 20:56:00
2:56 PM,81.0,26.1,13,29.86,10.0,WSW,12.7,21.9,N/A,,Clear,250,2012-10-08 21:56:00
3:56 PM,80.1,26.1,14,29.86,10.0,West,13.8,24.2,N/A,,Clear,260,2012-10-08 22:56:00
4:56 PM,78.1,30.0,17,29.87,10.0,WSW,13.8,24.2,N/A,,Clear,250,2012-10-08 23:56:00
5:56 PM,73.9,28.9,19,29.89,10.0,WSW,11.5,-,N/A,,Clear,250,2012-10-09 00:56:00
6:56 PM,69.8,32.0,25,30.04,10.0,SW,11.5,-,N/A,,Clear,230,2012-10-09 01:56:00
7:56 PM,64.9,32.0,29,29.93,10.0,SSW,10.4,-,N/A,,Clear,210,2012-10-09 02:56:00
8:56 PM,64.9,34.0,32,29.92,10.0,SW,13.8,-,N/A,,Clear,230,2012-10-09 03:56:00
9:56 PM,64.0,34.0,33,29.91,10.0,SW,10.4,-,N/A,,Clear,220,2012-10-09 04:56:00
10:56 PM,62.1,34.0,35,29.91,10.0,SW,11.5,-,N/A,,Clear,230,2012-10-09 05:56:00
11:56 PM,57.9,34.0,41,29.90,10.0,SW,12.7,-,N/A,,Clear,220,2012-10-09 06:56:00